Voltar ao catálogo

CZ-6A DEB

AtivoPO
NORAD 61346·DEBRIS·🇨🇳 China

Lançado Aug 6, 2024 de Taiyuan Satellite Launch Center

Loading…

Próximas Passagens (próximas 24 horas)

TLE

AtualizadoSource: Space-Track

Época: Sep 14, 2026, 10:36 UTC

1 61346U 24140VK  26257.44225527  .00021436  00000-0  19444-2 0  9994
2 61346  88.9502 253.0066 0039097 236.1678 123.5830 14.94634298108323

Acompanhe CZ-6A DEB em tempo real com AllMySat

Download on the App Store